EW6113 Weather Reports


Display with metric or nautical units.
time (UTC)temp
F
wind
direction
speed
MPH
gust
MPH
rain 1hr
in
rain 24hr
in
rain mn
in
humidity
%
barometer
mb
20260509003017 58 92 8.0 15.0 0.00 0.00 0.00 83 1015.0
20260509001516 59 51 6.0 13.0 0.00 0.00 0.00 83 1015.2
20260509000014 58 83 8.0 15.0 0.00 0.00 0.00 83 1015.3
20260508234513 59 77 10.0 17.0 0.00 0.00 0.00 82 1015.4
20260508233011 59 124 11.0 18.0 0.00 0.00 0.00 81 1015.4
20260508231509 58 82 9.0 19.0 0.00 0.00 0.00 83 1015.7
20260508230023 59 78 9.0 17.0 0.00 0.00 0.00 81 1015.8
20260508224506 60 128 9.0 16.0 0.00 0.00 0.00 81 1016.0
20260508223006 59 111 11.0 17.0 0.00 0.00 0.00 81 1016.1
20260508221502 59 102 11.0 17.0 0.00 0.00 0.00 81 1016.3
20260508220109 60 111 9.0 15.0 0.00 0.00 0.00 80 1016.4
20260508214600 59 71 7.0 15.0 0.00 0.00 0.00 82 1016.6
20260508213057 59 101 7.0 15.0 0.00 0.00 0.00 83 1016.7
20260508211600 59 56 10.0 17.0 0.00 0.00 0.00 82 1016.8
20260508210113 59 105 7.0 15.0 0.00 0.00 0.00 81 1016.9
20260508204556 59 98 9.0 16.0 0.00 0.00 0.00 82 1016.9
20260508203054 59 99 8.0 15.0 0.00 0.00 0.00 81 1017.0
20260508201555 59 69 7.0 14.0 0.00 0.00 0.00 81 1017.0
20260508200057 59 53 10.0 20.0 0.00 0.00 0.00 79 1017.2
20260508194551 59 67 6.0 15.0 0.00 0.00 0.00 81 1017.1
20260508193054 59 136 9.0 15.0 0.00 0.00 0.00 80 1017.3
20260508191551 58 118 8.0 16.0 0.00 0.00 0.00 82 1017.4
20260508190059 58 110 8.0 19.0 0.00 0.00 0.00 82 1017.5
20260508184608 59 94 8.0 15.0 0.00 0.00 0.00 81 1017.6
20260508183047 59 103 7.0 12.0 0.00 0.00 0.00 83 1017.5
20260508181558 57 90 6.0 12.0 0.00 0.00 0.00 85 1017.7
20260508180045 57 111 6.0 12.0 0.00 0.00 0.00 84 1017.8
20260508174543 56 97 4.0 12.0 0.00 0.00 0.00 87 1017.7
20260508173041 56 78 8.0 13.0 0.00 0.00 0.00 86 1017.8
20260508171538 55 91 5.0 11.0 0.00 0.00 0.00 88 1017.9
20260508170040 55 98 6.0 11.0 0.00 0.00 0.00 89 1018.0
20260508164542 55 102 6.0 12.0 0.00 0.00 0.00 89 1018.0
20260508163035 55 143 8.0 15.0 0.00 0.00 0.00 88 1017.9
20260508161538 56 67 7.0 12.0 0.00 0.00 0.00 87 1017.8
20260508160032 56 115 6.0 9.0 0.00 0.00 0.00 90 1017.7
20260508154527 54 146 4.0 9.0 0.00 0.00 0.00 93 1017.8
20260508153026 53 34 3.0 7.0 0.00 0.00 0.00 94 1017.8
20260508151525 52 27 3.0 6.0 0.00 0.00 0.00 94 1017.8
20260508150024 52 59 3.0 7.0 0.00 0.00 0.00 95 1017.8
20260508144543 52 82 2.0 10.0 0.00 0.00 0.00 95 1017.9
20260508143023 51 103 5.0 10.0 0.00 0.00 0.00 95 1017.9
20260508141522 52 70 4.0 10.0 0.00 0.00 0.00 95 1017.8
20260508140022 51 80 5.0 10.0 0.00 0.00 0.00 95 1017.8
20260508134526 52 86 5.0 9.0 0.00 0.00 0.00 96 1017.7
20260508133023 52 70 5.0 11.0 0.00 0.00 0.00 96 1017.6
20260508131515 51 87 2.0 8.0 0.00 0.00 0.00 97 1017.6
20260508130012 52 115 7.0 10.0 0.00 0.00 0.00 96 1017.4
20260508124510 52 113 5.0 10.0 0.00 0.00 0.00 97 1017.3
20260508123009 52 104 3.0 9.0 0.00 0.00 0.00 97 1017.2
20260508121507 52 56 2.0 7.0 0.00 0.00 0.00 97 1017.2
20260508120006 52 63 4.0 9.0 0.00 0.00 0.00 97 1017.1
20260508114505 52 53 4.0 8.0 0.00 0.00 0.00 96 1017.0
20260508113004 52 105 3.0 9.0 0.00 0.00 0.00 96 1017.0
20260508111505 52 85 5.0 9.0 0.00 0.00 0.00 96 1016.9
20260508110001 52 116 3.0 8.0 0.00 0.00 0.00 96 1016.9
20260508104600 52 62 3.0 8.0 0.00 0.00 0.00 96 1016.9
20260508103102 52 52 2.0 6.0 0.00 0.00 0.00 96 1016.8
20260508101612 53 86 4.0 9.0 0.00 0.00 0.00 96 1016.9
20260508100055 53 61 2.0 8.0 0.00 0.00 0.00 96 1016.9
20260508094554 53 85 4.0 9.0 0.00 0.00 0.00 95 1017.0
20260508093053 53 65 2.0 7.0 0.00 0.00 0.00 95 1017.1
20260508091601 53 62 2.0 7.0 0.00 0.00 0.00 95 1017.0
20260508090108 53 23 5.0 9.0 0.00 0.00 0.00 95 1017.0
20260508084550 53 71 3.0 5.0 0.00 0.00 0.00 95 1017.1
20260508083050 53 75 1.0 3.0 0.00 0.00 0.00 95 1017.0
20260508081551 53 70 2.0 8.0 0.00 0.00 0.00 95 1017.0
20260508080047 53 76 3.0 10.0 0.00 0.00 0.00 95 1017.0
20260508074546 53 59 3.0 7.0 0.00 0.00 0.00 94 1017.0
20260508073046 53 39 3.0 7.0 0.00 0.00 0.00 94 1017.1
20260508071552 53 37 3.0 8.0 0.00 0.00 0.00 94 1017.0
20260508070042 53 5 3.0 6.0 0.00 0.00 0.00 94 1017.1
20260508064540 54 33 2.0 5.0 0.00 0.00 0.00 94 1017.1
20260508063039 54 55 3.0 6.0 0.00 0.00 0.00 94 1017.0
20260508061538 54 61 3.0 8.0 0.00 0.00 0.00 94 1017.0
20260508060037 54 5 4.0 9.0 0.00 0.00 0.00 94 1016.9
20260508054538 53 19 6.0 10.0 0.00 0.00 0.00 94 1016.9
20260508053058 54 35 4.0 8.0 0.00 0.00 0.00 94 1016.8
20260508051534 54 64 5.0 9.0 0.00 0.00 0.00 94 1016.8
20260508050040 54 57 3.0 6.0 0.00 0.00 0.00 93 1016.9
20260508044533 54 50 2.0 8.0 0.00 0.00 0.00 93 1016.8
20260508043034 54 46 4.0 10.0 0.00 0.00 0.00 93 1016.7
20260508041554 54 46 4.0 10.0 0.00 0.00 0.00 93 1016.7
20260508040035 54 46 4.0 11.0 0.00 0.00 0.00 93 1016.6
20260508034534 54 61 3.0 9.0 0.00 0.00 0.00 92 1016.5
20260508033032 54 67 5.0 12.0 0.00 0.00 0.00 92 1016.4
20260508031535 54 88 5.0 13.0 0.00 0.00 0.00 92 1016.3
20260508030034 55 88 5.0 12.0 0.00 0.00 0.00 92 1016.3
20260508024531 55 106 5.0 10.0 0.00 0.00 0.00 91 1016.3
20260508023030 55 88 6.0 17.0 0.00 0.00 0.00 90 1016.2
20260508021528 55 96 8.0 14.0 0.00 0.00 0.00 90 1016.2
20260508020036 56 72 8.0 16.0 0.00 0.00 0.00 89 1016.2
20260508014526 56 92 8.0 16.0 0.00 0.00 0.00 89 1016.2
20260508013026 56 81 7.0 15.0 0.00 0.00 0.00 89 1016.3
20260508011524 56 79 9.0 18.0 0.00 0.00 0.00 88 1016.2
20260508010025 57 83 6.0 14.0 0.00 0.00 0.00 88 1016.2
20260508004524 57 86 10.0 19.0 0.00 0.00 0.00 87 1016.2